Погода в Уршельском

Россия / Владимирская область     55°40′35″N   40°12′49″E
темп.,
°C
ветер,
м/с
пор.,
м/с
влажн.,
%
обл.,
%
осадки,
мм/ч
давл.,
гПа
погр.,
м
7 августа, вс
вс700:00+20ююв237115 0.0 101955
03:00+19ю117150 0.0 101911
06:00+20ю267420 0.0 1018172
09:00+26ююз35518 0.0 1018505
12:00+30ююз34345 0.0 10182462
15:00+29ююз453763 0.0 10171232
18:00+29ююз25396 0.0 1016358
21:00+22с235915 0.0 101781
8 августа, пн
пн800:00+18с2788100 0.1 1019226
03:00+17ссв3896100 0.2 1019218
06:00+17ссв2795100 0.3 1020253
09:00+21св3672100 0.3 1020517
12:00+23ссв346482 0.0 1021635
15:00+26с334970 0.0 10201447
18:00+25ссв445622 0.0 1020575
21:00+17всв269341 2.4 1020111
9 августа, вт
вт900:00+16св2796100 1.5 1020149
03:00+16св379899 4.1 1020187
06:00+16св2798100 3.3 1020266
09:00+19в248992 4.3 1020365
12:00+20всв128699 0.0 101970
15:00+20всв1186100 0.4 1019159
18:00+18сз2595100 3.3 1019160
21:00+17ссв1197100 6.6 101931
10 августа, ср
ср1000:00+16с3799100 0.5 1019234
03:00+15с2299100 0.5 101987
06:00+15сз2398100 0.0 1019133
09:00+16ссз2393100 0.0 1020304
12:00+19зсз2378100 0.4 1019681
15:00+23сз244747 1.1 10181751
18:00+19сз276585 0.0 1019259
21:00+14сз27900 0.0 1020182
11 августа, чт
чт1100:00+12сз389816 0.0 1020220
03:00+11сз3109818 0.0 1021330
06:00+14с3887100 0.0 1022622
09:00+18с47652 0.0 1023998
12:00+22с46450 0.0 10231841
15:00+23с45388 0.0 10232200
18:00+22ссз24485 0.0 1023256
21:00+15с22705 0.0 102312